Retour au catalogue

STARLINK-33634

ActifCommunicationsVLEO
NORAD 63377·PAYLOAD·🇺🇸 United States

Lancé Mar 26, 2025 depuis Vandenberg Space Force Base

Loading…

Prochains Passages (prochaines 24 heures)

TLE

FraisSource: CelesTrak SupGP

Époque: Sep 14, 2026, 21:00 UTC

1 63377C 25063Q   26257.87548611  .00057035  00000+0  16853-2 0  2575
2 63377  53.1560 251.6693 0001224  99.8227 253.9965 15.34359671    10

Suivez STARLINK-33634 en temps réel avec AllMySat

Download on the App Store